Ketchikan, AK

10:36 PM AKDT on September 20, 2018 (GMT -0800)
Ketchikan International

Weather History for PAKT - August, 2018

Change the Weather History Date:

Sunday, August 19, 2018

  Actual Average Record
Temperature  
Mean Temperature 65 °F -  
Max Temperature 73 °F 64 °F 88 °F (1977)
Min Temperature 57 °F 50 °F 42 °F (1964)
Growing Degree Days 15 (Base 50)    
Moisture  
Dew Point 49 °F    
Average Humidity 58    
Maximum Humidity 78    
Minimum Humidity 43    
Precipitation  
Precipitation 0.00 in - - ()
Sea Level Pressure  
Sea Level Pressure 30.33 in    
Wind  
Wind Speed 10 mph (NW)    
Max Wind Speed 15 mph    
Max Gust Speed 21 mph    
Visibility 10 miles    
Events      
Averages and records for this station are not official NWS values.
T = Trace of Precipitation, MM = Missing Value Source: NWS Daily Summary

Daily Weather History Graph

Daily Weather History Graph

Search for Another Location

Airport or City:

Astronomy

Aug. 19, 2018 Rise Set
Actual Time 5:28 AM AKDT 8:11 PM AKDT
Civil Twilight 4:46 AM AKDT 8:52 PM AKDT
Nautical Twilight 3:52 AM AKDT 9:46 PM AKDT
Astronomical Twilight 2:42 AM AKDT 10:54 PM AKDT
Moon 3:53 PM AKDT (8/19) No Moon Set
Length of Visible Light 16h 05m
Length of Day
14h 43m
Waxing Gibbous, 65% of the Moon is Illuminated
Aug 19
Waxing Gibbous
Aug 26
Full
Sep 2
Last Quarter
Sep 9
New
Sep 16
First Quarter

Hourly Weather History & Observations

Time (AKDT) Temp. Dew Point Humidity Pressure Visibility Wind Dir Wind Speed Gust Speed Precip Events Conditions
12:53 AM 57.9 °F 50.0 °F 75% 30.36 in 10.0 mi NNW 8.1 mph - N/A   Clear
1:53 AM 59.0 °F 51.1 °F 75% 30.35 in 10.0 mi NNW 10.4 mph - N/A   Clear
2:53 AM 59.0 °F 51.1 °F 75% 30.35 in 10.0 mi NW 9.2 mph - N/A   Clear
3:53 AM 57.9 °F 51.1 °F 78% 30.35 in 10.0 mi NW 9.2 mph - N/A   Clear
4:53 AM 57.9 °F 51.1 °F 78% 30.36 in 10.0 mi WNW 9.2 mph - N/A   Clear
5:53 AM 57.0 °F 50.0 °F 77% 30.35 in 10.0 mi NW 8.1 mph - N/A   Clear
6:53 AM 59.0 °F 50.0 °F 72% 30.36 in 10.0 mi NW 10.4 mph - N/A   Clear
7:53 AM 62.6 °F 50.0 °F 63% 30.35 in 10.0 mi NW 10.4 mph - N/A   Clear
8:53 AM 64.0 °F 48.0 °F 56% 30.35 in 10.0 mi NW 13.8 mph - N/A   Clear
9:53 AM 66.2 °F 48.2 °F 52% 30.35 in 10.0 mi NW 12.7 mph 19.6 mph N/A   Clear
10:53 AM 66.2 °F 48.2 °F 52% 30.35 in 10.0 mi NW 12.7 mph - N/A   Clear
11:53 AM 69.1 °F 48.0 °F 47% 30.34 in 10.0 mi NW 13.8 mph 20.7 mph N/A   Clear
12:53 PM 70.0 °F 48.9 °F 47% 30.33 in 10.0 mi NW 15.0 mph - N/A   Clear
1:53 PM 71.6 °F 48.2 °F 43% 30.33 in 10.0 mi NW 12.7 mph - N/A   Clear
3:53 PM 73.4 °F 50.0 °F 44% 30.30 in 10.0 mi NW 12.7 mph - N/A   Clear
4:53 PM 73.4 °F 50.0 °F 44% 30.29 in 10.0 mi NW 12.7 mph - N/A   Clear
5:53 PM 72.0 °F 50.0 °F 46% 30.28 in 10.0 mi NW 13.8 mph - N/A   Clear
6:53 PM 71.6 °F 48.2 °F 43% 30.29 in 10.0 mi NW 10.4 mph - N/A   Clear
8:53 PM 66.0 °F 48.9 °F 54% 30.30 in 10.0 mi WNW 6.9 mph - N/A   Clear
9:53 PM 66.0 °F 48.9 °F 54% 30.30 in 10.0 mi WNW 6.9 mph - N/A   Clear
10:53 PM 66.0 °F 48.9 °F 54% 30.30 in 10.0 mi NW 8.1 mph - N/A   Clear
11:53 PM 66.0 °F 48.9 °F 54% 30.30 in 10.0 mi North 10.4 mph 20.7 mph N/A   Clear